Location: Newark
(55.7167°N, 12.5667°E)
Time: 20:40:41
(UTC+00:00)

N. Korean satellite - Pass Details

Date: 15 December 2019
Orbit: 454 x 507 km, 97.2° (Epoch: 29 January)

Event Time Altitude Azimuth Distance (km) Brightness Sun altitude
Rises 16:39:13 0° 189° (S) 2,596 10.7 -15.6°
Reaches altitude 10° 16:41:28 10° 200° (SSW) 1,711 9.9 -15.9°
Maximum altitude 16:44:48 31° 264° (W) 892 8.6 -16.3°
Drops below altitude 10° 16:48:07 10° 329° (NNW) 1,702 9.5 -16.8°
Sets 16:50:21 0° 340° (NNW) 2,581 10.3 -17.1°
